• Processing (Info)

  • MPEC 2023-Q17 : 2023 QF

    The following Minor Planet Electronic Circular may be linked-to from your own Web pages, but must not otherwise be redistributed electronically.

    A form allowing access to any MPEC is at the bottom of this page.


    Read MPEC 2023-Q16 Read MPEC 2023-Q18


    M.P.E.C. 2023-Q17                               Issued 2023 August 18, 22:34 UT
    
         The Minor Planet Electronic Circulars contain information on unusual
             minor planets, routine data on comets and natural satellites,
             and occasional editorial announcements.  They are published
        on behalf of Division F of the International Astronomical Union by the
              Minor Planet Center, Smithsonian Astrophysical Observatory,
                              Cambridge, MA 02138, U.S.A.
    			  
                 Prepared using the Tamkin Foundation Computer Network
    
                                  MPC@CFA.HARVARD.EDU
                URL https://www.minorplanetcenter.net/    ISSN 1523-6714
    
                                     2023 QF                                 
    
    
    Observations:
         K23Q00F* C2023 08 18.31871220 15 20.059-13 08 06.06         19.54wXEQ017F52
         K23Q00F  C2023 08 18.33019720 15 11.855-13 06 51.09         19.78wXEQ017F52
         K23Q00F  C2023 08 18.34169020 15 03.590-13 05 35.27         19.63wXEQ017F52
         K23Q00F  C2023 08 18.35319920 14 55.230-13 04 18.09         19.58wXEQ017F52
         K23Q00F  C2023 08 18.44779820 13 45.818-12 53 13.28         19.20GVEQ017F51
         K23Q00F  C2023 08 18.44844220 13 45.351-12 53 08.58         19.35GVEQ017F51
         K23Q00F 1C2023 08 18.84293 20 10 19.59 -12 06 49.2          20.0 VXEQ017033
         K23Q00F 1C2023 08 18.84322 20 10 19.39 -12 06 47.5          20.2 VXEQ017033
         K23Q00F 1C2023 08 18.84350 20 10 19.16 -12 06 44.8          20.0 VXEQ017033
         K23Q00F KB2023 08 18.86673820 10 07.31 -12 03 03.7          19.3 GVEQ017I93
         K23Q00F KC2023 08 18.86718020 10 00.79 -12 03 09.1          19.4 GVEQ017L01
         K23Q00F KC2023 08 18.86903220 09 59.29 -12 02 54.0          19.5 GVEQ017L01
         K23Q00F KB2023 08 18.86989520 10 04.85 -12 02 38.8          19.0 GVEQ017I93
         K23Q00F KC2023 08 18.87064020 09 58.04 -12 02 41.6          19.5 GVEQ017L01
         K23Q00F KC2023 08 18.87212620 09 56.88 -12 02 29.7          19.8 GVEQ017L01
         K23Q00F KB2023 08 18.87295020 10 02.47 -12 02 14.1          19.2 GVEQ017I93
         K23Q00F KC2023 08 18.87361320 09 55.70 -12 02 17.5          19.7 GVEQ017L01
         K23Q00F KC2023 08 18.89405720 09 39.57 -11 59 33.5          19.3 GXEQ017595
         K23Q00F KC2023 08 18.90139320 09 33.73 -11 58 32.7                XEQ017595
         K23Q00F KC2023 08 18.90856520 09 28.03 -11 57 34.0          19.3 GXEQ017595
    
    Observer details:
    033 Karl Schwarzschild Observatory, Tautenburg.  Observers S. Melnikov, C.
        Hoegner, F. Ludwig, M. Hartmann, B. Stecklum.  Measurer B. Stecklum.
        1.34-m f/3 Schmidt + CCD.
    595 Farra d'Isonzo.  Observer E. Pettarin.  0.61-m f/4.5 reflector + CCD.
    F51 Pan-STARRS 1, Haleakala.  Observers J. Bulger, K. Chambers, T. Lowe, P.
        Minguez, A. Schultz, I. Smith.  Measurers S. Chastel, J. Fairlamb, M.
        Huber, Y. Ramanjooloo, R. Wainscoat, R. Weryk.  1.8-m Ritchey-Chretien +
        CCD.
    F52 Pan-STARRS 2, Haleakala.  Observers J. Bulger, T. Lowe, P. Minguez, A.
        Schultz, I. Smith.  Measurers K. Chambers, T. de Boer, J. Bulger, J.
        Fairlamb, H. Gao, M. Huber, C.-C. Lin, T. Lowe, E. Magnier, P. Minguez, Y.
        Ramanjooloo, A. Schultz, I. Smith, R. Wainscoat, R. Weryk.  1.8-m Ritchey-
        Chretien + CCD.
    I93 St Pardon de Conques.  Observer F. Losse.  0.40-m f/3.7 reflector + CMO.
    L01 Visnjan Observatory, Tican.  Observer K. Korlevic.  1.0-m f/2.9 reflector
        + CCD.
    
    Orbital elements:
    2023 QF                                                  Earth MOID = 0.0040 AU
    Epoch 2023 Sept. 13.0 TT = JDT 2460200.5                Veres                   
    M 334.97490              (2000.0)            P               Q                  
    n   0.77108792     Peri.   75.76443     +0.85639399     -0.51619772             
    a   1.1777871      Node   315.31161     +0.46726597     +0.78420562             
    e   0.2227931      Incl.    0.92626     +0.21966303     +0.34432754             
    P   1.28           H   27.42          G   0.15           U   9                  
    Residuals in seconds of arc
    230818 F52  0.0   0.1+    230818 033  0.1+  0.5-    230818 L01  0.1+  0.2-
    230818 F52  0.1-  0.0     230818 033  0.1-  0.0     230818 I93  0.1-  0.1+
    230818 F52  0.1+  0.1-    230818 I93  0.1+  0.1-    230818 L01  0.0   0.0
    230818 F52  0.1-  0.2+    230818 L01  0.3+  0.3+    230818 595  0.1-  0.2+
    230818 F51  0.0   0.0     230818 L01  0.3-  0.5+    230818 595  0.1-  0.5+
    230818 F51  0.0   0.0     230818 I93  0.0   0.3-    230818 595  0.2+  0.3-
    230818 033  0.1-  0.1+    230818 L01  0.0   0.1-
    
    Ephemeris:
    2023 QF                  a,e,i = 1.18, 0.22, 1                   q = 0.9154
    Date    TT    R. A. (2000) Decl.     Delta      r    Elong.  Phase     V
    2023 07 19    20 59 45.1 -21 23 55   0.1234  1.1355   164.0    14.3    24.0
    ...
    2023 08 03    20 54 57.0 -20 35 47   0.06720 1.0819   176.9     2.9    22.0
    ...
    2023 08 11    20 45 09.8 -19 00 19   0.04065 1.0538   170.8     8.9    21.2
    ...
    2023 08 17    20 24 42.0 -15 04 15   0.02185 1.0333   160.9    18.7    20.1
    2023 08 18    20 17 48.8 -13 37 40   0.01882 1.0300   158.3    21.3    19.9
    2023 08 19    20 08 32.0 -11 37 04   0.01583 1.0266   155.0    24.7    19.6
    ...
    2023 08 25    13 06 11.6 +43 41 15   0.0061151.0070    49.5   130.2    22.1
    ...
    2023 09 02    09 35 20.8 +28 02 50   0.02905 0.9830    25.4   153.9    28.9
    ...
    2023 09 17    09 20 22.8 +23 19 37   0.07799 0.9459    38.9   138.2    28.4
    
    M. P. C. Staff               (C) Copyright 2023 MPC           M.P.E.C. 2023-Q17
    


    Read MPEC 2023-Q16 Read MPEC 2023-Q18


    MPEC number:

    Enter an MPEC number in one of the following forms:

    • 1997-B01 (the full form)
    • J97B01 (the packed version of the full form)
    • B01 (the abbreviated form)